{"data":{"norad_id":68835,"epoch":"2026-05-25T04:33:18.821088Z","epoch_age_seconds":58583,"freshness":"FRESH","line1":"1 68835U 26092A   26145.18980117  .00002309  00000+0  16032-3 0  9990","line2":"2 68835  38.0002 225.2813 0004746 215.8433 144.2010 15.06551195  4481","mean_motion":15.06551195,"eccentricity":0.0004746,"inclination_deg":38.0002,"raan_deg":225.2813,"arg_perigee_deg":215.8433,"mean_anomaly_deg":144.201,"bstar":0.00016032,"rev_number":448,"period_min":95.582546731842,"perigee_km":543.4616552754,"apogee_km":550.03475631274,"semimajor_km":6924.8852057941,"source":"CELESTRAK","updated_at":"2026-05-25T13:38:12.870586Z"}}